[[{"header":{"parameterUnit":"m.s-1","parameterCategory":1,"la1":30.2991,"la2":30.254,"lo1":-89.0895,"lo2":-89.0444,"dy":0.0017,"dx":0.0017,"nx":28,"ny":28,"refTime":"2025-03-13T09:00:00:Z","depth":0,"parameterNumber":2,"parameterNumberName":"U-component_of_WINDS"},"data":[0,0,0,0,0,0,0,0,0,0,0,0,0,0,0,0,0,0,0,0,0,0,0,0,0,0,0,0,0,0,0,0,0,0,0,0,0,0,0,0,0,0,0,0,0,0,0,0,0,0,0,0,0,0,0,0,0,0,-2.9863,-2.9864,0,-2.9984,-2.9985,-2.9987,-3.0026,-3.0025,-3.0025,-3.0024,-3.015,-3.0153,-3.0157,0,0,0,0,0,0,0,0,0,0,0,0,0,-2.9668,-2.9671,-2.9863,-2.9864,-2.9866,-2.9984,-2.9985,-2.9987,-3.0026,-3.0025,-3.0025,-3.0024,-3.0148,-3.0153,-3.0158,0,0,0,0,0,0,0,0,0,0,0,0,0,-2.9767,-2.9672,-2.9862,-2.9899,-2.9904,-2.9983,-2.9985,-2.9987,-3.0026,-3.0025,-3.0024,-3.0024,-3.0147,-3.0153,-3.0158,-3.021,0,0,-3.0176,-3.0178,0,0,0,0,0,0,0,0,-2.9761,-2.9774,-2.9892,-2.9897,-2.9902,-2.9989,-2.9963,-3.0062,-3.0026,-2.998,-3.0024,-3.0023,-3.0097,-3.0107,-3.0131,-3.0216,-3.0222,-3.0176,-3.018,-3.0182,-3.0184,0,0,0,0,0,0,0,-2.9754,-2.9769,-2.9911,-2.9894,-2.99,-2.9911,-2.9924,-2.9982,-3.0041,-2.9984,-2.9987,-3.0,-3.0099,-3.0126,-3.0135,-3.0223,-3.0176,-3.0181,-3.0185,-3.0187,-3.0358,-3.0359,0,0,0,0,0,0,-2.9741,-2.9763,-2.9907,-2.9914,-2.9828,-2.9915,-2.993,-2.9962,-3.0041,-3.0052,-3.0001,-3.0002,-3.0116,-3.0128,-3.0139,-3.0205,-3.0182,-3.0188,-3.0191,-3.0357,-3.0358,-3.036,0,0,0,0,0,0,-2.9737,-2.9753,-2.9902,-2.984,-2.9859,-2.9919,-2.9955,-2.9965,-2.9991,-3.0054,-3.0065,-3.0017,-3.0116,-3.0131,-3.0192,-3.021,-3.019,-3.0196,-3.0356,-3.0357,-3.0359,-3.0338,0,0,0,0,0,0,-2.9731,-2.9752,-2.9771,-2.984,-2.9862,-2.9952,-2.9956,-2.9968,-3.0001,-3.0003,-3.0072,-3.0082,-3.0117,-3.0184,-3.0198,-3.0218,-3.02,-3.0354,-3.0357,-3.0358,-3.0337,-3.0338,-3.0339,0,0,0,0,0,-2.9724,-2.9761,-2.9772,-2.9789,-2.9888,-2.9953,-2.9966,-3.0004,-3.0002,-3.0022,-3.0063,-3.008,-3.0206,-3.0189,-3.0206,-3.0228,-3.0353,-3.0356,-3.0358,-3.0336,-3.0338,-3.0339,0,0,0,0,0,0,-2.9693,-2.977,-2.9784,-2.9844,-2.9891,-2.9959,-2.9986,-3.0005,-3.0055,-3.0055,-3.0101,-3.0116,-3.0174,-3.0208,-3.0187,-3.0283,-3.0281,-3.0287,-3.0258,-3.026,-3.0262,-3.0252,-3.0205,0,0,0,0,0,-2.9693,-2.9738,-2.9804,-2.9851,-2.9874,-2.9926,-2.9956,-2.9981,-3.0033,-3.0053,-3.0099,-3.0149,-3.02,-3.0232,-3.0283,-3.0343,-3.0359,-3.0366,-3.0367,-3.0368,-3.0372,-3.0407,-3.0411,-3.0367,-3.0367,-3.0367,0,0,-2.9693,-2.9741,-2.9767,-2.9846,-2.9886,-2.9932,-2.9943,-2.9992,-3.0027,-3.0061,-3.0121,-3.0157,-3.0216,-3.0277,-3.0306,-3.0306,-3.0388,-3.0371,-3.0371,-3.0375,-3.041,-3.0414,-3.0417,-3.0369,-3.0369,-3.0369,0,0,-2.9718,-2.9759,-2.9802,-2.9842,-2.9903,-2.9938,-2.9948,-3.0014,-3.0039,-3.01,-3.0127,-3.017,-3.0257,-3.0298,-3.033,-3.0373,-3.039,-3.0388,-3.0394,-3.0427,-3.043,-3.0434,-3.0448,-3.0453,-3.0392,-3.0392,-3.0392,0,-2.9711,-2.9782,-2.9822,-2.987,-2.9904,-2.9937,-2.9982,-3.0019,-3.0093,-3.0116,-3.0116,-3.0226,-3.0268,-3.0339,-3.035,-3.0375,-3.0389,-3.0379,-3.0426,-3.043,-3.0434,-3.0448,-3.0454,-3.0391,-3.0392,-3.0392,-3.0392,0,-2.977,-2.9819,-2.9847,-2.9917,-2.9955,-3.0,-3.0049,-3.0082,-3.0105,-3.014,-3.0203,-3.0255,-3.0316,-3.0336,-3.0359,-3.0411,-3.0409,-3.0417,-3.0416,-3.0436,-3.0451,-3.0457,-3.039,-3.0391,-3.0391,-3.0391,0,0,-2.9777,-2.987,-2.9879,-2.9911,-2.9981,-3.002,-3.0069,-3.0129,-3.0156,-3.0207,-3.0249,-3.0322,-3.0331,-3.0367,-3.0396,-3.0425,-3.0455,-3.043,-3.0432,-3.0432,-3.0515,-3.0507,-3.0513,-3.0468,-3.0469,-3.047,-3.051,0,-2.9809,-2.9895,-2.9934,-3.0003,-3.0049,-3.0082,-3.0124,-3.0172,-3.0207,-3.0252,-3.0291,-3.0342,-3.0349,-3.0372,-3.0402,-3.0444,-3.0472,-3.0442,-3.0507,-3.0509,-3.0489,-3.0521,-3.0512,-3.0547,-3.0516,-3.0517,-3.0518,0,-2.9859,-2.9909,-2.9982,-3.0047,-3.0068,-3.0104,-3.0163,-3.0206,-3.0261,-3.0285,-3.0326,-3.0354,-3.0407,-3.0403,-3.0477,-3.0456,-3.0485,-3.051,-3.0513,-3.0519,-3.0513,-3.0526,-3.056,-3.0564,-3.0527,-3.0526,-3.0525,0,-2.9855,-2.9941,-2.9996,-3.0023,-3.01,-3.0125,-3.0159,-3.0214,-3.0248,-3.03,-3.0323,-3.0381,-3.0412,-3.0456,-3.0499,-3.0493,-3.0569,-3.0569,-3.059,-3.0589,-3.0603,-3.0601,-3.064,-3.0624,-3.0624,-3.0624,-3.0624,0,-2.9886,-2.9929,-2.9995,-3.0028,-3.0078,-3.0124,-3.0172,-3.0209,-3.0258,-3.03,-3.0333,-3.0372,-3.0427,-3.0473,-3.0508,-3.0563,-3.0578,-3.0598,-3.0607,-3.0595,-3.0592,-3.0613,-3.0611,-3.0626,-3.0625,-3.0625,-3.0625,0,-2.9889,-2.9935,-2.9997,-3.0066,-3.0084,-3.0118,-3.0177,-3.0212,-3.0249,-3.0302,-3.0317,-3.0375,-3.0431,-3.0479,-3.0554,-3.0577,-3.0635,-3.0645,-3.0615,-3.0619,-3.0637,-3.0634,-3.069,-3.0699,-3.0678,-3.0678,-3.0678,0,-2.9906,-2.994,-3.0012,-3.0042,-3.0075,-3.0123,-3.0158,-3.0205,-3.024,-3.0307,-3.0334,-3.0392,-3.0441,-3.053,-3.058,-3.0638,-3.0649,-3.0665,-3.0658,-3.0645,-3.0648,-3.0645,-3.0649,-3.0664,-3.0664,-3.0664,-3.0664,0,-2.993,-2.9951,-2.9999,-3.0055,-3.0096,-3.0143,-3.0191,-3.0214,-3.027,-3.0308,-3.0365,-3.0404,-3.048,-3.0538,-3.0601,-3.0637,-3.066,-3.0667,-3.0674,-3.0661,-3.0642,-3.0652,-3.0615,-3.0665,-3.0665,-3.0665,-3.0665,-3.0665,-2.9939,-2.9971,-3.0027,-3.008,-3.0121,-3.0165,-3.0201,-3.0243,-3.0291,-3.0356,-3.0381,-3.044,-3.0497,-3.0584,-3.0621,-3.0668,-3.0672,-3.0683,-3.0686,-3.0687,-3.0685,-3.0636,-3.068,-3.0681,-3.0681,-3.0681,-3.0681,0,-2.9964,-3.0002,-3.005,-3.0116,-3.0158,-3.0176,-3.0231,-3.0265,-3.0316,-3.0366,-3.0414,-3.0481,-3.0538,-3.0593,-3.0653,-3.0681,-3.0693,-3.0695,-3.0692,-3.0701,-3.0679,-3.0666,-3.0684,-3.0684,-3.0684,-3.0684,-3.0684,-3.0684,-2.9982,-3.0036,-3.0064,-3.014,-3.0178,-3.0235,-3.0265,-3.0306,-3.0347,-3.042,-3.0467,-3.0502,-3.0555,-3.0619,-3.0673,-3.0688,-3.0708,-3.0707,-3.0724,-3.0703,-3.0702,-3.0701,-3.0689,-3.0711,-3.0711,-3.0742,-3.0742,-3.0742]},{"header":{"parameterUnit":"m.s-1","parameterCategory":1,"la1":30.2991,"la2":30.254,"lo1":-89.0895,"lo2":-89.0444,"dy":0.0017,"dx":0.0017,"nx":28,"ny":28,"refTime":"2025-03-13T09:00:00:Z","depth":0,"parameterNumber":3,"parameterNumberName":"V-component_of_WINDS"},"data":[0,0,0,0,0,0,0,0,0,0,0,0,0,0,0,0,0,0,0,0,0,0,0,0,0,0,0,0,0,0,0,0,0,0,0,0,0,0,0,0,0,0,0,0,0,0,0,0,0,0,0,0,0,0,0,0,0,0,3.9246,3.9246,0,3.9252,3.9252,3.9252,3.9245,3.9245,3.9244,3.9244,3.9248,3.9249,3.9249,0,0,0,0,0,0,0,0,0,0,0,0,0,3.9229,3.923,3.9246,3.9246,3.9246,3.9252,3.9252,3.9252,3.9245,3.9245,3.9244,3.9244,3.9248,3.9248,3.9249,0,0,0,0,0,0,0,0,0,0,0,0,0,3.9236,3.923,3.9246,3.9243,3.9243,3.9252,3.9252,3.9252,3.9245,3.9245,3.9244,3.9244,3.9248,3.9248,3.9249,3.926,0,0,3.9251,3.9251,0,0,0,0,0,0,0,0,3.9236,3.9236,3.9244,3.9244,3.9243,3.9247,3.9247,3.9255,3.9245,3.9244,3.9244,3.9244,3.9248,3.9249,3.925,3.926,3.926,3.9251,3.9251,3.9251,3.9251,0,0,0,0,0,0,0,3.9235,3.9236,3.9248,3.9244,3.9244,3.9242,3.9243,3.9249,3.9248,3.9244,3.9244,3.9245,3.9248,3.925,3.925,3.926,3.9251,3.9251,3.9251,3.9252,3.9282,3.9282,0,0,0,0,0,0,3.9235,3.9236,3.9248,3.9248,3.9238,3.9243,3.9243,3.9246,3.9248,3.9248,3.9245,3.9244,3.9249,3.925,3.9251,3.9265,3.9251,3.9252,3.9252,3.9281,3.9282,3.9282,0,0,0,0,0,0,3.9235,3.9236,3.9248,3.9242,3.9243,3.9243,3.9247,3.9247,3.9249,3.9249,3.9248,3.9247,3.9249,3.925,3.9258,3.9265,3.9252,3.9252,3.9281,3.9281,3.9282,3.9293,0,0,0,0,0,0,3.9234,3.9236,3.924,3.9242,3.9244,3.9255,3.9247,3.9247,3.925,3.9249,3.9251,3.925,3.9249,3.9258,3.9259,3.9265,3.9253,3.928,3.9281,3.9282,3.9292,3.9294,3.9295,0,0,0,0,0,3.9234,3.9242,3.924,3.9242,3.9249,3.9256,3.9257,3.9255,3.925,3.9255,3.9255,3.925,3.9264,3.9258,3.926,3.9267,3.928,3.9281,3.9282,3.9291,3.9293,3.9295,0,0,0,0,0,0,3.9239,3.9242,3.924,3.9249,3.9253,3.9255,3.9259,3.9257,3.9261,3.926,3.9257,3.9258,3.9267,3.9268,3.9261,3.9279,3.9271,3.9273,3.9278,3.928,3.9282,3.9281,3.9253,0,0,0,0,0,3.9242,3.9247,3.9249,3.9257,3.9259,3.9259,3.9262,3.9261,3.9264,3.9265,3.9266,3.9268,3.9274,3.9277,3.9281,3.9292,3.9293,3.9298,3.93,3.9301,3.9302,3.931,3.9312,3.9286,3.9286,3.9286,0,0,3.9246,3.9249,3.9252,3.9259,3.9261,3.9267,3.926,3.9267,3.9271,3.9265,3.9274,3.9275,3.9278,3.9288,3.9293,3.9289,3.931,3.9302,3.9304,3.9304,3.9311,3.9314,3.9316,3.9287,3.9287,3.9286,0,0,3.9258,3.926,3.9268,3.9271,3.9275,3.9276,3.9278,3.9281,3.9282,3.929,3.9287,3.9293,3.9301,3.9304,3.9306,3.9323,3.9319,3.9324,3.9333,3.9341,3.9343,3.9345,3.9352,3.9354,3.9325,3.9325,3.9325,0,3.9264,3.9273,3.9272,3.928,3.9283,3.928,3.9288,3.9291,3.9296,3.9299,3.9295,3.9307,3.9308,3.932,3.9325,3.9326,3.9329,3.9324,3.9343,3.9345,3.9346,3.9353,3.9356,3.9326,3.9326,3.9326,3.9326,0,3.928,3.9287,3.9292,3.9299,3.9303,3.9311,3.9312,3.9316,3.9315,3.9317,3.9327,3.9329,3.9335,3.9338,3.9336,3.935,3.9348,3.9343,3.9336,3.935,3.9356,3.9358,3.9327,3.9327,3.9327,3.9326,0,0,3.9294,3.9302,3.9304,3.9308,3.9313,3.9318,3.9327,3.9334,3.9338,3.9342,3.935,3.9359,3.9356,3.9359,3.9357,3.9364,3.9379,3.9359,3.9359,3.9364,3.9396,3.9399,3.9402,3.9377,3.9377,3.9378,3.9396,0,3.9306,3.9321,3.9322,3.9336,3.9343,3.9341,3.9349,3.9353,3.9355,3.9362,3.9363,3.937,3.9365,3.9367,3.9374,3.9376,3.9385,3.9374,3.9384,3.9384,3.9384,3.9405,3.9408,3.9425,3.9398,3.9399,3.9399,0,3.9323,3.9329,3.9344,3.9351,3.9354,3.9361,3.9368,3.9374,3.938,3.9381,3.9386,3.9385,3.9394,3.9387,3.94,3.9393,3.9397,3.9399,3.94,3.9401,3.9392,3.9407,3.9431,3.9434,3.9403,3.9402,3.9402,0,3.9333,3.9345,3.9356,3.9359,3.9367,3.9372,3.9376,3.9381,3.9386,3.9393,3.9396,3.9403,3.9407,3.9414,3.9415,3.9409,3.9429,3.9421,3.943,3.9431,3.9434,3.9434,3.9459,3.9437,3.9437,3.9436,3.9436,0,3.9347,3.9356,3.9361,3.9367,3.9378,3.938,3.9391,3.9394,3.9399,3.9407,3.9406,3.9413,3.9414,3.9422,3.9423,3.9435,3.9437,3.9438,3.9438,3.9439,3.9438,3.9441,3.944,3.9437,3.9437,3.9437,3.9437,0,3.9359,3.9362,3.9375,3.9382,3.9384,3.9392,3.9398,3.9405,3.9408,3.9418,3.9421,3.9425,3.9434,3.9436,3.9447,3.9448,3.9462,3.9461,3.9461,3.9461,3.947,3.947,3.9498,3.9503,3.9477,3.9477,3.9477,0,3.9368,3.9375,3.9384,3.939,3.9394,3.9403,3.9409,3.9411,3.9417,3.9426,3.9432,3.9441,3.9449,3.9465,3.9469,3.9477,3.9477,3.9486,3.9478,3.9479,3.9478,3.9478,3.9479,3.9488,3.9488,3.9488,3.9488,0,3.9384,3.9386,3.9394,3.9404,3.9411,3.9418,3.9425,3.943,3.9434,3.9441,3.9451,3.9457,3.947,3.948,3.9489,3.9493,3.9492,3.9491,3.9494,3.9494,3.9494,3.9495,3.9466,3.949,3.949,3.949,3.949,3.949,3.9395,3.9402,3.9411,3.942,3.9427,3.9434,3.9442,3.9446,3.9455,3.9466,3.9467,3.9479,3.9486,3.9499,3.9504,3.9513,3.951,3.9514,3.9515,3.9516,3.9518,3.9493,3.9515,3.9515,3.9515,3.9515,3.9515,0,3.9412,3.9417,3.9427,3.9438,3.9446,3.9445,3.9454,3.9461,3.9471,3.9479,3.9488,3.9501,3.9511,3.9517,3.9528,3.9534,3.9534,3.9537,3.9536,3.9538,3.9519,3.9516,3.9537,3.9537,3.9537,3.9537,3.9537,3.9537,3.9421,3.9434,3.9437,3.9454,3.946,3.9472,3.9477,3.9485,3.9491,3.9506,3.9515,3.9519,3.9527,3.9538,3.9548,3.955,3.9554,3.9557,3.9559,3.9541,3.9539,3.9537,3.9534,3.9558,3.9558,3.9577,3.9577,3.9577]}]]